, SD

(GMT )
Rapid City

Weather History for KRAP - November, 2013

Change the Weather History Date:

Monday, November 25, 2013

  Actual Average Record
Temperature  
Mean Temperature 36 °F 30 °F  
Max Temperature 44 °F 42 °F 75 °F (1960)
Min Temperature 28 °F 18 °F -8 °F (2010)
Degree Days  
Heating Degree Days 29 35  
Month to date heating degree days 763 732  
Since 1 July heating degree days 1558 1494  
Cooling Degree Days 0 0  
Month to date cooling degree days 0 0  
Year to date cooling degree days 724 636  
Moisture  
Dew Point 17 °F    
Average Humidity 47    
Maximum Humidity 64    
Minimum Humidity 30    
Precipitation  
Precipitation 0.00 in 0.01 in 0.26 in (1976)
Month to date precipitation 0.38 0.47  
Year to date precipitation 21.14 15.81  
Snow  
Snow 0.00 in 0.10 in 3.40 in (1975)
Month to date snowfall 4.0 5.1  
Since 1 July snowfall 24.8 6.9  
Since 1 September snowfall 24.8 6.9  
Snow Depth 0.00 in    
Sea Level Pressure  
Sea Level Pressure 30.27 in    
Wind  
Wind Speed 16 mph (NNW)    
Max Wind Speed 29 mph    
Max Gust Speed 33 mph    
Visibility 10 miles    
Events      
T = Trace of Precipitation, MM = Missing Value Source: NWS Daily Summary

Daily Weather History Graph

Daily Weather History Graph

Search for Another Location

Airport or City:

Trip Planner

Search our weather history database for the weather conditions in past years. The results will help you decide how hot, cold, wet, or windy it might be!

Date:

Astronomy

Nov. 25, 2013 Rise Set
Actual Time 7:00 AM MST 4:17 PM MST
Civil Twilight 6:28 AM MST 4:49 PM MST
Nautical Twilight 5:52 AM MST 5:25 PM MST
Astronomical Twilight 5:18 AM MST 6:00 PM MST
Moon 11:53 PM MST (11/25) 12:10 PM MST (11/25)
Length of Visible Light 10h 21m
Length of Day
9h 17m
Waning Gibbous, 50% of the Moon is Illuminated
Nov 25
Waning Gibbous
Nov 25
Last Quarter
Dec 2
New
Dec 9
First Quarter
Dec 17
Full

Hourly Weather History & Observations

Time (MST) Temp. Windchill Dew Point Humidity Pressure Visibility Wind Dir Wind Speed Gust Speed Precip Events Conditions
12:52 AM 39.0 °F 31.0 °F 19.9 °F 46% 30.10 in 10.0 mi NW 13.8 mph - N/A   Overcast
1:52 AM 34.0 °F 24.6 °F 19.0 °F 54% 30.12 in 10.0 mi NW 13.8 mph - N/A   Clear
2:52 AM 34.0 °F 24.6 °F 19.9 °F 56% 30.13 in 10.0 mi NNW 13.8 mph - N/A   Clear
3:52 AM 35.1 °F 25.9 °F 19.9 °F 54% 30.16 in 10.0 mi NNW 13.8 mph - N/A   Clear
4:52 AM 34.0 °F 25.0 °F 19.0 °F 54% 30.19 in 10.0 mi NNW 12.7 mph - N/A   Clear
5:52 AM 32.0 °F 22.1 °F 19.9 °F 61% 30.22 in 10.0 mi North 13.8 mph - N/A   Clear
6:52 AM 33.1 °F 24.9 °F 21.9 °F 64% 30.22 in 10.0 mi NNW 10.4 mph - N/A   Clear
7:52 AM 34.0 °F 23.8 °F 23.0 °F 64% 30.25 in 10.0 mi North 16.1 mph - N/A   Clear
8:52 AM 36.0 °F 24.4 °F 23.0 °F 59% 30.28 in 10.0 mi North 23.0 mph 28.8 mph N/A   Clear
9:52 AM 37.0 °F 25.1 °F 19.9 °F 50% 30.29 in 10.0 mi NNW 26.5 mph 32.2 mph N/A   Clear
10:52 AM 39.0 °F 28.3 °F 17.1 °F 41% 30.30 in 10.0 mi NNW 24.2 mph 29.9 mph N/A   Clear
11:52 AM 43.0 °F 33.1 °F 16.0 °F 34% 30.28 in 10.0 mi NNW 26.5 mph 33.4 mph N/A   Clear
12:52 PM 41.0 °F 31.4 °F 15.1 °F 35% 30.28 in 10.0 mi NNW 21.9 mph 28.8 mph N/A   Clear
1:52 PM 44.1 °F 35.9 °F 15.1 °F 31% 30.29 in 10.0 mi NNW 19.6 mph 25.3 mph N/A   Clear
2:52 PM 41.0 °F 31.4 °F 12.9 °F 32% 30.29 in 10.0 mi NNW 21.9 mph 27.6 mph N/A   Clear
3:52 PM 37.0 °F 28.9 °F 14.0 °F 39% 30.31 in 10.0 mi NNW 12.7 mph - N/A   Clear
4:52 PM 32.0 °F 23.0 °F 14.0 °F 48% 30.33 in 10.0 mi NNW 11.5 mph - N/A   Clear
5:52 PM 30.9 °F 21.2 °F 14.0 °F 50% 30.34 in 10.0 mi NNW 12.7 mph - N/A   Clear
6:52 PM 28.9 °F 19.2 °F 14.0 °F 54% 30.35 in 10.0 mi NW 11.5 mph - N/A   Clear
7:52 PM 32.0 °F 23.0 °F 15.1 °F 50% 30.35 in 10.0 mi NW 11.5 mph - N/A   Clear
8:52 PM 32.0 °F 24.2 °F 15.1 °F 50% 30.35 in 10.0 mi WNW 9.2 mph - N/A   Overcast
9:52 PM 34.0 °F 24.6 °F 16.0 °F 48% 30.35 in 10.0 mi NW 13.8 mph - N/A   Overcast
10:52 PM 35.1 °F 25.2 °F 15.1 °F 44% 30.35 in 10.0 mi NNW 16.1 mph 25.3 mph N/A   Overcast
11:52 PM 35.1 °F 24.8 °F 14.0 °F 42% 30.35 in 10.0 mi North 17.3 mph - N/A   Overcast